Regional Weather Roundup
Issued by NWS Midland/Odessa, TX

Skip options and go directly to product.
Home | Oldest Version | Previous Version | Current Version | All | Text Only | Save Text | Print | Product List | Glossary On

Skip product version selection by date and time.   
408
ASUS44 KMAF 020510
RWRMAF
MIDLAND AREA WEATHER ROUNDUP
NATIONAL WEATHER SERVICE MIDLAND TX
1200 AM CDT THU JUL 02 2015

...IN SOUTHWEST TEXAS AND SOUTHEAST NEW MEXICO...

CITY           SKY/WX    TMP DP  RH WIND       PRES   REMARKS
ALPINE         NOT AVBL
ANDREWS        NOT AVBL
ARTESIA        CLEAR     81  59  47 SE12      30.04R
BIG SPRING     NOT AVBL
CARLSBAD       CLEAR     82  60  47 SE13      30.00R
DRYDEN           N/A     77  68  73 E10       30.01R
FORT STOCKTON  CLEAR     75  64  68 SE16G23   30.01S
GUAD PASS      CLEAR     73  58  59 NE23      30.16R
HOBBS          CLEAR     73  59  60 SE9       30.07R
MARFA          CLEAR    N/A N/A N/A SE3       30.15R
MIDLAND AIRPK  NOT AVBL
MIDLAND INTL   CLEAR     76  65  68 S8        30.03R
ODESSA         CLEAR     77  63  61 S10       30.03R
PECOS          NOT AVBL
PRESIDIO       NOT AVBL
SEMINOLE       NOT AVBL
SNYDER         NOT AVBL
WINK           CLEAR     79  63  57 SE15      29.99R
$$
...OTHER STATIONS IN TEXAS...

CITY           SKY/WX    TMP DP  RH WIND       PRES   REMARKS
ABILENE        CLEAR     78  66  66 S10       29.99R
AMARILLO       PTCLDY    78  61  55 S17       30.01R
AUSTIN         PTCLDY    71  71 100 S7        30.05R
BROWNSVILLE    CLEAR     73  68  84 SE5       30.04R
CORPUS CHRISTI CLOUDY    74  71  91 SE7       30.04
DALLAS FTW     PTCLDY    80  68  66 S13       29.96R
DEL RIO        PTCLDY    77  69  76 SE9       29.99S
EL PASO        PTCLDY    86  48  26 SW7       29.99
HOUSTON INT    PTCLDY    73  72  96 S5        30.05F
LUBBOCK        PTCLDY    77  63  61 S17       30.03R
SAN ANGELO     CLEAR     77  66  68 S14       30.01
SAN ANTONIO    MOCLDY    75  70  84 S7        30.06
WACO           CLEAR     75  70  84 S16       30.00
WICHITA FALLS  NOT AVBL
$$
...OTHER LOCATIONS IN NEW MEXICO...

CITY           SKY/WX    TMP DP  RH WIND       PRES   REMARKS
ALAMAGORDO     CLEAR     79  46  31 SE6       30.03R
ALBUQUERQUE    CLOUDY    80  51  36 N16G26    30.14R
CANNON AFB     NOT AVBL
CLOVIS         CLEAR     73  57  56 S12         N/A
HOLLOMAN AFB   CLEAR     84  46  26 SE6       30.00R
ROSWELL        CLEAR     79  58  48 S9        30.03
RUIDOSO        CLEAR     66  48  52 SE8       30.29S
SANTA FE       LGT RAIN  64  57  78 NE18      30.26F
TRUTH OR CONSE CLEAR     84  42  22 SW7       30.06R
TUCUMCARI      PTCLDY    82  52  35 S12       30.01R
$$

USA.gov is the U.S. government's official web portal to all federal, state and local government web resources and services.